Regional Weather Roundup
Issued by NWS Cleveland, OH

Home | Current Version | Previous Version | Graphics & Text | Print | Product List | Glossary On
Versions: 1 2 3 4 5 6 7 8 9 10 11 12 13 14 15 16 17 18 19 20 21 22 23 24 25 26 27 28 29 30 31 32 33 34 35 36 37 38 39 40 41 42 43 44 45 46 47 48 49 50
000
ASUS41 KCLE 260912
RWRCLE
OHIO REGIONAL WEATHER ROUNDUP
NATIONAL WEATHER SERVICE WILMINGTON, OH
500 AM EDT WED APR 26 2017

NOTE: "FAIR" INDICATES FEW OR NO CLOUDS BELOW 12,000 FEET WITH NO
SIGNIFICANT WEATHER AND/OR OBSTRUCTIONS TO VISIBILITY.

OHZ001>008-015>018-024>027-034-035-043-044-261000-
   NORTHWEST OHIO

CITY           SKY/WX    TMP DP  RH WIND       PRES   REMARKS
DEFIANCE       FAIR      59  53  80 SE6       29.67S
FINDLAY        FAIR      58  52  80 SE9       29.69S
TOLEDO EXPRESS FAIR      58  54  86 S5        29.68S
TOLEDO EXEC    FAIR      57  54  89 SE7       29.69F
LIMA           CLOUDY    59  54  83 SE7       29.69S
$$

OHZ009>014-019>023-028>033-038-089-261000-
   NORTHEAST OHIO

CITY           SKY/WX    TMP DP  RH WIND       PRES   REMARKS
CLE-HOPKINS    FAIR      57  51  80 SE9       29.74F
CLE-LAKEFRONT  FAIR      57  52  83 SE7       29.72F
CUY CO. ARPT   NOT AVBL
LORAIN-ELYRIA  FAIR      54  50  86 S7        29.73S
ASHTABULA      FAIR      51  51 100 SE3       29.77S
AKRON-CANTON   CLOUDY    55  51  86 SE8       29.75F FOG
WOOSTER        FAIR      49  48  97 SE5       29.74F FOG
MANSFIELD      FAIR      54  54 100 SE9       29.73S
YOUNGSTOWN     FAIR      52  50  93 E6        29.78R
$$

OHZ042-051>053-060>062-070>072-077>081-261000-
  SOUTHWEST OHIO

CITY           SKY/WX    TMP DP  RH WIND       PRES   REMARKS
CINC-COVINGTON FAIR      56  54  93 S6        29.70S
CINC-LUNKEN    FOG       54  54 100 CALM      29.71S VSB 1/2
HAMILTON       FAIR      52  52 100 CALM      29.71S
DAYTON         FAIR      57  54  89 S6        29.71R
WRIGHT-PAT AFB FAIR      58  57  95 CALM      29.70R
DAYTON GENERAL FAIR      59  56  89 S5        29.70R
WILMINGTON     FAIR      55  55 100 S5        29.71S
$$

OHZ036-037-039>041-045>050-054>059-063>069-073>076-082>088-261000-
  CENTRAL AND SOUTHEAST OHIO

CITY           SKY/WX    TMP DP  RH WIND       PRES   REMARKS
COLUMBUS       FAIR      58  54  86 SE5       29.72S
OSU AIRPORT    FAIR      57  54  89 SE6       29.72S
BOLTON FIELD   FAIR      54  53  96 CALM      29.73R
RICKENBACK AFB FAIR      53  53  98 CALM      29.72R
NEWARK         FOG       49  48  97 CALM      29.72F VSB 1/2
MARION         FAIR      55  52  89 S8        29.72S
LANCASTER      FAIR      50  48  93 CALM      29.73S
ZANESVILLE     FAIR      52  50  93 CALM      29.74S
NEW PHILLY     FAIR      50  49  96 SE3       29.76S
$$




USA.gov is the U.S. government's official web portal to all federal, state and local government web resources and services.